Location: New Mesquite
(33.1168°N, 96.4336°W)
Time: 03:15:33
(UTC+00:00)

NOAA 12 - Visible Passes

Search period start: 29 June 2022 00:00
Search period end: 09 July 2022 00:00
Orbit: 796 x 814 km, 98.5° (Epoch: 28 June)

Date Brightness Start Highest point End Pass type
(mag) Time Alt. Az. Time Alt. Az. Time Alt. Az.
29 Jun 7.3 10:46:27 10° E 10:47:28 10° E 10:48:29 10° ESE visible
03 Jul 7.3 10:45:54 10° E 10:46:44 10° E 10:47:33 10° E visible
07 Jul 7.4 10:45:26 10° E 10:46:00 10° E 10:46:32 10° E visible
